GW0007 Weather Reports


Display with metric or nautical units.
time (UTC)temp
F
wind
direction
speed
MPH
gust
MPH
rain 1hr
in
rain 24hr
in
rain mn
in
humidity
%
barometer
mb
20260508154533 58 250 5.0 12.0 0.00 0.14 0.01 61 1013.9
20260508153043 57 298 4.0 11.0 0.00 0.14 0.01 65 1014.2
20260508151542 55 311 3.0 14.0 0.00 0.14 0.01 68 1014.4
20260508150040 53 70 1.0 4.0 0.00 0.14 0.01 73 1014.6
20260508144537 51 0 0.0 3.0 0.00 0.14 0.01 76 1014.7
20260508143046 48 334 4.0 7.0 0.00 0.14 0.01 78 1014.9
20260508141540 48 11 1.0 2.0 0.00 0.14 0.01 79 1015.0
20260508140043 46 77 2.0 3.0 0.00 0.14 0.01 85 1015.2
20260508134542 44 79 1.0 3.0 0.00 0.14 0.01 86 1015.2
20260508133037 42 86 2.0 4.0 0.00 0.14 0.01 88 1015.3
20260508131539 41 91 1.0 3.0 0.00 0.14 0.01 89 1015.2
20260508130043 41 88 0.0 3.0 0.00 0.14 0.01 89 1015.1
20260508124535 41 76 1.0 2.0 0.00 0.14 0.01 90 1015.0
20260508123040 39 122 1.0 4.0 0.00 0.14 0.01 90 1014.9
20260508121542 39 120 2.0 3.0 0.00 0.14 0.01 90 1014.7
20260508120040 39 107 1.0 4.0 0.00 0.14 0.01 89 1014.6
20260508114551 41 122 0.0 4.0 0.00 0.14 0.01 89 1014.6
20260508113044 42 89 0.0 2.0 0.00 0.14 0.01 89 1014.6
20260508111557 42 0 0.0 1.0 0.00 0.14 0.01 90 1014.7
20260508110036 43 0 0.0 3.0 0.00 0.14 0.01 89 1014.6
20260508104536 41 0 0.0 2.0 0.00 0.14 0.01 91 1014.7
20260508103045 41 286 0.0 1.0 0.00 0.14 0.01 89 1014.7
20260508101542 42 275 1.0 3.0 0.00 0.14 0.01 89 1014.6
20260508100041 42 0 1.0 5.0 0.00 0.14 0.01 88 1014.6
20260508094537 42 281 2.0 5.0 0.00 0.14 0.01 90 1014.6
20260508093036 41 334 0.0 3.0 0.01 0.14 0.01 91 1014.6
20260508091544 41 0 0.0 4.0 0.01 0.14 0.01 91 1014.7
20260508090045 40 230 0.0 2.0 0.01 0.14 0.01 91 1014.8
20260508084542 40 127 3.0 5.0 0.01 0.14 0.01 91 1014.7
20260508083047 40 76 0.0 3.0 0.00 0.13 0.00 91 1014.8
20260508081546 41 209 0.0 3.0 0.00 0.13 0.00 92 1014.7
20260508080035 41 90 1.0 2.0 0.00 0.13 0.00 91 1014.9
20260508074538 41 0 0.0 2.0 0.00 0.14 0.00 91 1015.0
20260508073048 40 0 0.0 1.0 0.00 0.14 0.00 91 1015.0
20260508071538 41 291 1.0 5.0 0.00 0.14 0.00 88 1014.9
20260508070047 41 267 2.0 5.0 0.00 0.14 0.00 89 1015.0
20260508064543 42 317 3.0 8.0 0.00 0.15 0.00 88 1015.0
20260508063044 41 234 2.0 5.0 0.00 0.15 0.00 90 1015.0
20260508061541 42 0 0.0 6.0 0.00 0.15 0.00 89 1014.9
20260508060042 43 271 5.0 8.0 0.00 0.15 0.00 89 1014.9
20260508054543 43 233 3.0 5.0 0.00 0.15 0.15 89 1014.7
20260508053035 43 271 0.0 5.0 0.00 0.15 0.15 89 1014.7
20260508051538 44 263 1.0 5.0 0.00 0.15 0.15 88 1014.8
20260508050045 44 230 3.0 8.0 0.00 0.15 0.15 89 1014.7
20260508044539 45 247 4.0 6.0 0.00 0.15 0.15 90 1014.9
20260508043050 45 0 0.0 1.0 0.00 0.15 0.15 91 1015.0
20260508041543 46 0 0.0 2.0 0.00 0.15 0.15 89 1015.0
20260508040040 48 112 1.0 4.0 0.00 0.15 0.15 87 1015.0
20260508034548 48 103 1.0 3.0 0.00 0.15 0.15 86 1014.9
20260508033037 50 94 0.0 1.0 0.00 0.15 0.15 83 1014.7
20260508031536 50 77 1.0 3.0 0.00 0.15 0.15 82 1014.7
20260508030043 50 111 2.0 3.0 0.00 0.15 0.15 81 1014.4
20260508024553 50 82 2.0 6.0 0.00 0.15 0.15 82 1014.5
20260508023039 52 275 2.0 5.0 0.01 0.15 0.15 78 1014.1
20260508021539 52 214 1.0 4.0 0.01 0.15 0.15 79 1013.8
20260508020039 52 271 1.0 6.0 0.01 0.15 0.15 78 1013.7
20260508014543 52 25 3.0 8.0 0.01 0.15 0.15 76 1013.6
20260508013042 51 290 2.0 7.0 0.00 0.14 0.14 81 1014.0
20260508011539 51 183 2.0 5.0 0.01 0.14 0.14 83 1013.2
20260508010041 51 130 2.0 5.0 0.01 0.14 0.14 81 1013.1
20260508004550 51 94 4.0 9.0 0.07 0.14 0.14 82 1013.1
20260508003043 51 86 5.0 8.0 0.08 0.14 0.14 83 1013.2
20260508001542 51 84 6.0 12.0 0.07 0.13 0.13 79 1013.7
20260508000038 53 74 8.0 24.0 0.07 0.13 0.13 76 1013.8
20260507234543 58 76 5.0 9.0 0.00 0.06 0.06 58 1013.5
20260507233037 59 82 3.0 6.0 0.00 0.06 0.06 56 1012.4
20260507231549 60 181 0.0 3.0 0.00 0.06 0.06 53 1012.2
20260507230043 58 146 4.0 6.0 0.00 0.06 0.06 59 1012.2
20260507224540 57 115 0.0 4.0 0.00 0.06 0.06 65 1012.1
20260507223038 56 214 3.0 6.0 0.00 0.06 0.06 67 1011.9
20260507221536 54 0 1.0 6.0 0.04 0.06 0.06 68 1011.8
20260507220043 53 4 6.0 14.0 0.04 0.06 0.06 71 1012.0
20260507214540 52 28 12.0 22.0 0.04 0.06 0.06 75 1012.2
20260507213045 53 11 18.0 39.0 0.04 0.06 0.06 68 1012.8
20260507211539 59 343 14.0 30.0 0.00 0.02 0.02 53 1012.2
20260507210046 64 39 6.0 10.0 0.00 0.02 0.02 42 1012.2
20260507204539 64 56 7.0 13.0 0.00 0.02 0.02 41 1012.0
20260507203045 63 58 5.0 13.0 0.00 0.02 0.02 43 1011.9
20260507201539 62 36 7.0 15.0 0.00 0.02 0.02 44 1012.0
20260507200047 62 15 7.0 15.0 0.00 0.02 0.02 45 1012.2
20260507194545 62 337 10.0 18.0 0.00 0.02 0.02 45 1012.2
20260507193051 63 356 12.0 17.0 0.00 0.02 0.02 44 1012.4
20260507191543 62 345 12.0 21.0 0.00 0.02 0.02 44 1012.4
20260507190049 61 300 12.0 23.0 0.00 0.02 0.02 50 1012.6
20260507184538 60 354 7.0 11.0 0.00 0.02 0.02 53 1012.8
20260507183051 59 356 6.0 12.0 0.00 0.02 0.02 57 1012.8
20260507181543 57 345 2.0 10.0 0.00 0.02 0.02 63 1012.9
20260507180047 57 69 3.0 7.0 0.00 0.02 0.02 64 1012.8
20260507174557 56 57 3.0 8.0 0.00 0.02 0.02 64 1012.8
20260507173050 55 73 4.0 10.0 0.00 0.02 0.02 66 1012.8
20260507171545 56 82 6.0 10.0 0.00 0.02 0.02 64 1012.6
20260507170047 57 96 6.0 10.0 0.00 0.02 0.02 63 1012.7
20260507164542 57 36 3.0 6.0 0.00 0.02 0.02 61 1012.5
20260507163039 56 86 6.0 16.0 0.00 0.02 0.02 64 1012.6
20260507161543 55 335 9.0 11.0 0.00 0.02 0.02 69 1012.5
20260507160046 56 248 5.0 10.0 0.00 0.02 0.02 67 1012.1